Location: Ward Pound Ridge Reservation
(41.2500°N, 73.6000°W)
Time: 10:46:41
(UTC-04:00)

Envisat - Pass Details

Date: 08 October 2017
Orbit: 764 x 766 km, 98.2° (Epoch: 19 October)

Event Time Altitude Azimuth Distance (km) Brightness Sun altitude
Exits shadow 22:21:38 10° 280° (W) 2,286 5.9 -43.2°
Drops below altitude 10° 22:21:56 10° 283° (WNW) 2,305 6.0 -43.2°
Sets 22:26:37 0° 323° (NW) 3,238 7.0 -43.9°
